Tracking 20942 objects as of 13-Jul-2020
HD Live streaming from Space Station
objects crossing your sky now

THOR ABLESTAR DEB

Track THOR ABLESTAR DEB now!
10-day predictions


NORAD ID: 5745
Int'l Code: 1961-015JU
Perigee: 772.1 km
Apogee: 901.6 km
Inclination: 67.1 °
Period: 101.5 minutes
Semi major axis: 7207 km
RCS: 0.0107 m2 (small)
Launch date: June 29, 1961
Source: United States (US)
Launch site: AIR FORCE EASTERN TEST RANGE (AFETR)

Note: This is SATELLITE DEBRIS
aabbcc
Your satellite tracking list
Your tracking list is empty




NASA's NSSDC Master Catalog

Two Line Element Set (TLE):
1  5745U 61015JU  20195.12988778  .00000149  00000-0  10592-3 0  9995
2  5745  67.0712 312.6683 0089812 333.5837  26.0693 14.18710317957128
Source of the keplerian elements: AFSPC